Station YGNN6 - Niagara Coast Guard Station, NY Image indicating link to RSS feed of recent meteorological observations for station YGNN6


Conditions at YGNN6 as of
(11:00 pm EDT on 05/26/2024)
0300 GMT on 05/27/2024:
     

Click on the graph icon in the table below to see a time series plot of the last five days of that observation.

5-day plot - Wind Direction Wind Direction (WDIR): E ( 80 deg true )
5-day plot - Wind Speed Wind Speed (WSPD):3.6 m/s
5-day plot - Wind Gust Wind Gust (GST):6.7 m/s
5-day plot - Atmospheric Pressure Atmospheric Pressure (PRES):1005.4 mb
5-day plot - Pressure Tendency Pressure Tendency (PTDY): -2.4 mb ( Falling )
5-day plot - Air Temperature Air Temperature (ATMP): 19.6 °C
5-day plot - Wind Speed at 10 Meters Wind Speed at 10 meters (WSPD10M): 4 m/s
5-day plot - Wind Speed at 20 Meters Wind Speed at 20 meters (WSPD20M): 4 m/s
5-day plot -  Wind Speed, Wind Gust and Atmospheric Pressure Combined plot of Wind Speed, Gust, and Air Pressure
Previous observations
TIME
(EDT)
5-day plot - Wind Direction
WDIR
 
5-day plot - Wind Speed
WSPD
m/s
5-day plot - Wind Gust
GST
m/s
5-day plot - Wave Height
WVHT
m
5-day plot - Dominant Wave Period
DPD
sec
5-day plot - Average Wave Period
APD
sec
5-day plot - Mean Wave Direction
MWD
 
5-day plot - Atmospheric Pressure
PRES
mb
5-day plot - Pressure Tendency
PTDY
mb
5-day plot - Air Temperature
ATMP
°C
5-day plot - Water Temperature
WTMP
°C
5-day plot - Dew Point
DEWP
°C
5-day plot - Salinity
SAL
psu
5-day plot - Visibility
VIS
km
5-day plot - Tide (above MLLW)
TIDE
m
2024-05-26 10:50 pm E 3.1 6.7----1005.4- 19.6-----
2024-05-26 10:40 pm E 2.6 6.7----1005.8- 19.5-----
2024-05-26 10:30 pm E 2.6 5.7----1005.8- 19.5-----
2024-05-26 10:20 pm E 2.6 5.7----1006.1- 19.6-----
2024-05-26 10:10 pm E 2.1 7.2----1006.4- 19.5-----
2024-05-26 10:00 pm E 2.6 5.7----1006.4 -3.1 19.5-----
2024-05-26 09:50 pm E 3.1 6.7----1006.4- 19.6-----
2024-05-26 09:40 pm E 2.1 4.6----1006.8- 19.6-----
2024-05-26 09:30 pmENE 2.1 5.7----1007.1- 19.6-----
2024-05-26 09:20 pm E 2.1 6.7----1007.1- 19.6-----
2024-05-26 09:10 pm E 2.1 5.1----1007.5- 19.6-----
2024-05-26 09:00 pmENE 1.5 5.7----1007.5 -3.0 19.6-----
2024-05-26 08:50 pmENE 2.6 5.7----1007.5- 19.5-----
2024-05-26 08:40 pm E 2.1 4.6----1007.8- 19.4-----
2024-05-26 08:30 pmENE 2.6 5.1----1007.5- 19.3-----
2024-05-26 08:20 pmENE 2.6 6.2----1007.8- 19.6-----
2024-05-26 08:10 pmENE 2.6 5.7----1008.1- 19.5-----
2024-05-26 08:00 pmENE 2.6 6.2----1007.8 -3.0 19.4-----
2024-05-26 07:50 pmENE 2.1 5.1----1008.1- 18.8-----
2024-05-26 07:40 pmENE 3.1 5.1----1008.5- 18.1-----
2024-05-26 07:30 pmENE 3.1 5.1----1008.5- 17.4-----
2024-05-26 07:20 pm NE 2.6 5.1----1008.8- 17.3-----
2024-05-26 07:10 pm NE 3.6 5.1----1008.8- 17.1-----
2024-05-26 07:00 pmENE 2.6 5.7----1009.5 -2.7 17.1-----
2024-05-26 06:50 pm NE 3.1 6.7----1009.5- 16.9-----
2024-05-26 06:30 pm NE 3.6 5.7----1009.8- 17.1-----
2024-05-26 06:20 pm NE 4.1 6.2----1010.2- 17.4-----
2024-05-26 06:10 pm NE 4.1 6.7----1010.5- 17.2-----
2024-05-26 06:00 pm NE 3.6 6.2----1010.5 -2.7 17.4-----
2024-05-26 05:50 pm NE 3.1 6.7----1010.5- 17.2-----
2024-05-26 05:40 pm NE 4.1 6.2----1010.5- 17.1-----
2024-05-26 05:30 pm NE 3.1 6.2----1010.8- 17.3-----
2024-05-26 05:20 pm NE 3.6 6.7----1010.8- 17.3-----
2024-05-26 05:10 pm NE 4.6 6.7----1010.8- 17.2-----
2024-05-26 05:00 pm NE 3.1 5.7----1010.8 -3.1 17.4-----
2024-05-26 04:50 pm NE 3.1 5.7----1011.2- 17.0-----
2024-05-26 04:40 pm NE 3.1 5.1----1011.5- 16.8-----
2024-05-26 04:30 pm NE 3.1 5.1----1011.5- 16.5-----
2024-05-26 04:20 pm NE 2.6 4.1----1011.9- 16.5-----
2024-05-26 04:10 pm NE 3.1 4.6----1012.2- 16.0-----
2024-05-26 04:00 pm NE 2.6 5.1----1012.2 -2.0 15.8-----
2024-05-26 03:50 pm NE 2.6 5.1----1012.5- 15.7-----
2024-05-26 03:40 pm NE 3.6 6.2----1012.5- 15.5-----
2024-05-26 03:30 pm NE 3.1 5.7----1012.9- 15.4-----
2024-05-26 03:20 pm NE 2.6 5.1----1012.9- 15.4-----
2024-05-26 03:10 pm NE 2.6 4.6----1012.9- 15.5-----
2024-05-26 03:00 pmNNE 2.1 4.1----1013.2 -1.0 16.0-----
2024-05-26 02:50 pmNNE 1.0 4.6----1013.2- 15.9-----
2024-05-26 02:40 pmNNW 2.6 4.6----1013.2- 15.3-----
2024-05-26 02:30 pm N 1.5 4.6----1013.5- 15.1-----
2024-05-26 02:20 pm N 2.1 4.1----1013.5- 15.8-----
2024-05-26 02:10 pm N 2.6 4.1----1013.9- 15.7-----
2024-05-26 02:00 pm N 2.1 3.6----1013.9 -1.0 15.6-----
2024-05-26 01:50 pm N 2.6 3.1----1013.9- 15.4-----
2024-05-26 01:40 pm N 2.1 3.6----1013.9- 15.2-----
2024-05-26 01:30 pmNNW 2.1 3.6----1013.9- 15.4-----
2024-05-26 01:10 pmNNW 2.1 3.6----1014.2- 15.1-----
2024-05-26 01:00 pm N 2.6 3.6----1014.2 -0.4 15.6-----
2024-05-26 12:50 pm N 2.1 3.1----1014.2- 15.4-----
2024-05-26 12:40 pm N 2.1 3.1----1014.2- 15.5-----
2024-05-26 12:30 pm N 1.0 3.1----1014.2- 15.5-----
2024-05-26 12:20 pm N 1.5 3.1----1014.6- 15.4-----
2024-05-26 12:10 pm N 1.5 2.6----1014.2- 15.6-----
2024-05-26 12:00 pm N 2.1 3.1----1014.2 -0.4 15.5-----
2024-05-26 11:50 amNNW 1.0 2.6----1014.6- 15.1-----
2024-05-26 11:40 amNNW 1.0 3.1----1014.6- 14.8-----
2024-05-26 11:30 am N 1.5 3.1----1014.9- 14.7-----
2024-05-26 11:20 am N 2.1 3.1----1014.9- 14.4-----
2024-05-26 11:10 am N 2.1 2.6----1014.9- 14.3-----
2024-05-26 11:00 am N 2.6 3.1----1014.9- 14.2-----
2024-05-26 10:50 am N 1.5 3.1----1014.9- 14.2-----
2024-05-26 10:40 am N 2.1 3.1----1014.9- 14.1-----
2024-05-26 10:30 amNNW 1.5 2.6----1014.6- 14.4-----
2024-05-26 10:20 am NE 1.0 2.6----1014.2- 14.2-----
2024-05-26 10:10 am N 1.0 2.1----1014.2- 14.3-----
2024-05-26 10:00 am- 0.0 2.1----1014.6 +0.7 14.2-----
2024-05-26 09:50 am N 1.5 3.6----1014.9- 14.0-----
2024-05-26 09:40 am N 3.1 4.1----1014.9- 14.0-----
2024-05-26 09:30 am N 3.1 4.6----1014.9- 14.9-----
2024-05-26 09:20 am N 0.5 1.5----1014.9- 15.4-----
2024-05-26 09:10 am NE 0.5 1.5----1014.9- 15.3-----
2024-05-26 09:00 amNNE 0.5 1.5----1014.6 +1.1 15.3-----
2024-05-26 08:50 am NE 1.0 2.1----1014.6- 15.1-----
2024-05-26 08:40 am N 1.5 2.6----1014.6- 14.8-----
2024-05-26 08:30 am N 2.1 2.6----1014.6- 15.0-----
2024-05-26 08:20 am NE 1.0 2.6----1014.2- 14.8-----
2024-05-26 08:10 amENE 2.1 3.1----1014.2- 14.9-----
2024-05-26 07:50 am- 0.0 1.5----1013.9- 14.6-----
2024-05-26 07:40 am- 0.0 1.5----1014.2- 14.3-----
2024-05-26 07:30 am SE 1.5 1.5----1013.9- 14.0-----
2024-05-26 07:20 am SE 1.5 2.1----1013.9- 13.9-----
2024-05-26 07:10 am SE 1.5 1.5----1013.9- 13.8-----
2024-05-26 07:00 amESE 0.5 1.0----1013.9 +1.0 13.7-----
2024-05-26 06:50 am- 0.0 1.0----1013.9- 13.5-----
2024-05-26 06:40 am- 0.0 1.0----1013.9- 13.3-----
2024-05-26 06:30 am- 0.0 0.0----1014.2- 13.0-----
2024-05-26 06:20 am- 0.0 0.5----1014.2- 12.9-----
2024-05-26 06:10 am- 0.0 1.0----1013.9- 12.7-----
2024-05-26 06:00 am- 0.0 1.5----1013.5 +1.0 12.7-----
2024-05-26 05:50 am S 1.0 1.5----1013.5- 12.7-----
2024-05-26 05:40 am- 0.0 1.0----1013.5- 12.6-----
2024-05-26 05:30 am SE 0.5 1.0----1013.2- 12.6-----
2024-05-26 05:20 amSSE 1.0 2.1----1012.9- 12.7-----
2024-05-26 05:10 am SE 1.5 2.1----1012.9- 13.0-----
2024-05-26 05:00 am SE 1.0 1.5----1012.9 +0.4 13.0-----
2024-05-26 04:50 am SE 1.5 2.1----1012.9- 13.2-----
2024-05-26 04:40 am SE 1.0 2.1----1012.9- 13.3-----
2024-05-26 04:30 am S 1.5 2.1----1012.9- 13.5-----
2024-05-26 04:20 amSSE 2.1 2.1----1012.9- 13.6-----
2024-05-26 04:10 am S 1.0 1.5----1012.9- 13.9-----
2024-05-26 04:00 am SW 1.0 2.1----1012.9 +0.7 14.1-----
2024-05-26 03:50 amSSE 1.5 2.1----1012.9- 14.2-----
2024-05-26 03:40 amSSE 2.1 2.6----1012.9- 14.3-----
2024-05-26 03:30 am SE 2.1 2.6----1012.5- 14.4-----
2024-05-26 03:20 amSSE 1.5 2.1----1012.5- 14.5-----
2024-05-26 03:10 amSSE 2.1 2.1----1012.5- 14.7-----
2024-05-26 03:00 am S 1.5 1.5----1012.5 +0.6 14.8-----
2024-05-26 02:50 amSSW 1.0 1.5----1012.5- 14.9-----
2024-05-26 02:30 am W 1.0 2.1----1012.5- 14.9-----
2024-05-26 02:20 am SW 1.5 2.1----1012.5- 15.2-----
2024-05-26 02:10 am W 1.5 2.1----1012.5- 15.2-----
2024-05-26 02:00 amWNW 2.1 3.6----1012.5 +1.0 15.3-----
2024-05-26 01:50 am NW 2.6 3.6----1012.2- 15.4-----
2024-05-26 01:40 amNNW 2.1 2.6----1012.5- 15.4-----
2024-05-26 01:30 am N 2.1 2.6----1012.2- 15.3-----
2024-05-26 01:20 amNNE 0.5 3.1----1012.2- 15.4-----
2024-05-26 01:10 amNNE 1.5 2.6----1012.2- 15.7-----
2024-05-26 01:00 amWNW 1.5 2.1----1012.2 +1.4 15.7-----
2024-05-26 12:50 amWSW 1.5 2.1----1012.2- 15.6-----
2024-05-26 12:40 amWNW 0.5 1.0----1012.2- 15.3-----
2024-05-26 12:30 am- 0.0 1.0----1012.2- 15.0-----
2024-05-26 12:20 am SE 1.0 2.1----1011.9- 15.1-----
2024-05-26 12:10 amESE 2.1 2.6----1011.9- 15.0-----
2024-05-26 12:00 am SE 2.1 2.6----1011.9 +1.4 15.0-----
2024-05-25 11:50 pm SE 2.1 2.1----1011.9- 15.1-----
2024-05-25 11:40 pm SE 1.0 1.5----1011.9- 15.2-----
2024-05-25 11:30 pm SE 1.0 1.5----1011.9- 15.1-----
2024-05-25 11:20 pm SE 0.5 1.0----1011.9- 15.0-----
2024-05-25 11:10 pm- 0.0 1.5----1011.5- 15.2-----
2024-05-25 11:00 pmESE 1.5 2.1----1011.5 +1.7 15.3-----
2024-05-25 10:50 pm SE 1.5 2.1----1011.5- 15.4-----